Time,TemperatureF,DewpointF,PressureIn,WindDirection,WindDirectionDegrees,WindSpeedMPH,WindSpeedGustMPH,Humidity,HourlyPrecipIn,Conditions,Clouds,dailyrainin,SoftwareType,DateUTC
2013-04-02 00:03:00,23.0,17.0,30.23,WNW,292,0.0,0.0,76,0.00,,,0.00,,2013-04-02 04:03:00,
2013-04-02 00:13:00,23.0,17.0,30.23,WNW,292,0.0,0.0,76,0.00,,,0.00,,2013-04-02 04:13:00,
2013-04-02 00:23:00,22.0,16.0,30.23,WNW,292,0.0,0.0,79,0.00,,,0.00,,2013-04-02 04:23:00,
2013-04-02 00:33:00,22.0,17.0,30.23,WNW,292,0.0,0.0,80,0.00,,,0.00,,2013-04-02 04:33:00,
2013-04-02 00:43:00,22.0,17.0,30.23,WNW,292,0.0,0.0,80,0.00,,,0.00,,2013-04-02 04:43:00,
2013-04-02 00:53:00,22.0,16.0,30.23,WNW,292,0.0,0.0,78,0.00,,,0.00,,2013-04-02 04:53:00,
2013-04-02 01:02:00,22.0,17.0,30.23,WNW,292,0.0,0.0,80,0.00,,,0.00,,2013-04-02 05:02:00,
2013-04-02 01:12:00,22.0,17.0,30.23,WNW,292,0.0,0.0,80,0.00,,,0.00,,2013-04-02 05:12:00,
2013-04-02 01:22:00,22.0,17.0,30.23,WNW,292,0.0,0.0,82,0.00,,,0.00,,2013-04-02 05:22:00,
2013-04-02 01:32:00,21.0,17.0,30.24,WNW,292,0.0,0.0,86,0.00,,,0.00,,2013-04-02 05:32:00,
2013-04-02 01:42:00,21.0,17.0,30.24,WNW,292,0.0,0.0,86,0.00,,,0.00,,2013-04-02 05:42:00,
2013-04-02 01:52:00,21.0,17.0,30.23,WNW,292,0.0,0.0,86,0.00,,,0.00,,2013-04-02 05:52:00,
2013-04-02 02:02:00,20.0,18.0,30.23,WNW,292,0.0,0.0,90,0.00,,,0.00,,2013-04-02 06:02:00,
2013-04-02 02:12:00,20.0,18.0,30.23,WNW,292,0.0,0.0,90,0.00,,,0.00,,2013-04-02 06:12:00,
2013-04-02 02:22:00,20.0,18.0,30.23,WNW,292,0.0,0.0,91,0.00,,,0.00,,2013-04-02 06:22:00,
2013-04-02 02:32:00,19.0,18.0,30.25,WNW,292,0.0,0.0,96,0.00,,,0.00,,2013-04-02 06:32:00,
2013-04-02 02:42:00,19.0,18.0,30.25,WNW,292,0.0,0.0,96,0.00,,,0.00,,2013-04-02 06:42:00,
2013-04-02 02:52:00,19.0,18.0,30.23,WNW,292,0.0,0.0,95,0.00,,,0.00,,2013-04-02 06:52:00,
2013-04-02 03:02:00,19.0,19.0,30.23,WNW,292,0.0,0.0,98,0.00,,,0.00,,2013-04-02 07:02:00,
2013-04-02 03:12:00,19.0,19.0,30.23,WNW,292,0.0,0.0,98,0.00,,,0.00,,2013-04-02 07:12:00,
2013-04-02 03:22:00,19.0,19.0,30.23,WNW,292,0.0,0.0,98,0.00,,,0.00,,2013-04-02 07:22:00,
2013-04-02 03:32:00,19.0,19.0,30.23,WNW,292,0.0,0.0,99,0.00,,,0.00,,2013-04-02 07:32:00,
2013-04-02 03:42:00,19.0,19.0,30.23,WNW,292,0.0,0.0,99,0.00,,,0.00,,2013-04-02 07:42:00,
2013-04-02 03:53:00,19.0,18.0,30.23,WNW,292,0.0,0.0,97,0.00,,,0.00,,2013-04-02 07:53:00,
2013-04-02 04:02:00,19.0,19.0,30.23,WNW,292,0.0,0.0,99,0.00,,,0.00,,2013-04-02 08:02:00,
2013-04-02 04:13:00,19.0,19.0,30.23,WNW,292,0.0,0.0,99,0.00,,,0.00,,2013-04-02 08:13:00,
2013-04-02 04:22:00,19.0,18.0,30.23,WNW,292,0.0,0.0,97,0.00,,,0.00,,2013-04-02 08:22:00,
2013-04-02 04:32:00,22.0,20.0,30.23,WNW,292,0.0,0.0,90,0.00,,,0.00,,2013-04-02 08:32:00,
2013-04-02 04:42:00,22.0,20.0,30.23,WNW,292,0.0,0.0,90,0.00,,,0.00,,2013-04-02 08:42:00,
2013-04-02 04:52:00,22.0,20.0,30.25,WNW,292,0.0,0.0,91,0.00,,,0.00,,2013-04-02 08:52:00,
2013-04-02 05:02:00,23.0,21.0,30.22,WSW,247,0.0,1.0,92,0.00,,,0.00,,2013-04-02 09:02:00,
2013-04-02 05:12:00,23.0,21.0,30.22,WSW,247,0.0,1.0,92,0.00,,,0.00,,2013-04-02 09:12:00,
2013-04-02 05:22:00,23.0,22.0,30.22,WSW,247,0.0,0.0,95,0.00,,,0.00,,2013-04-02 09:22:00,
2013-04-02 05:32:00,22.0,22.0,30.25,WSW,247,0.0,0.0,98,0.00,,,0.00,,2013-04-02 09:32:00,
2013-04-02 05:43:00,22.0,22.0,30.25,WSW,247,0.0,0.0,98,0.00,,,0.00,,2013-04-02 09:43:00,
2013-04-02 05:53:00,21.0,21.0,30.23,WSW,247,0.0,0.0,100,0.00,,,0.00,,2013-04-02 09:53:00,
2013-04-02 06:03:00,21.0,21.0,30.23,WSW,247,0.0,0.0,100,0.00,,,0.00,,2013-04-02 10:03:00,
2013-04-02 06:13:00,21.0,21.0,30.23,WSW,247,0.0,0.0,100,0.00,,,0.00,,2013-04-02 10:13:00,
2013-04-02 06:23:00,21.0,21.0,30.24,WSW,247,0.0,0.0,100,0.00,,,0.00,,2013-04-02 10:23:00,
2013-04-02 06:33:00,21.0,21.0,30.25,WSW,247,0.0,0.0,100,0.00,,,0.00,,2013-04-02 10:33:00,
2013-04-02 06:42:00,21.0,21.0,30.25,WSW,247,0.0,0.0,100,0.00,,,0.00,,2013-04-02 10:42:00,
2013-04-02 06:53:00,21.0,21.0,30.25,WSW,247,0.0,0.0,100,0.00,,,0.00,,2013-04-02 10:53:00,
2013-04-02 07:02:00,21.0,21.0,30.26,WSW,247,0.0,0.0,100,0.00,,,0.00,,2013-04-02 11:02:00,
2013-04-02 07:12:00,21.0,21.0,30.26,WSW,247,0.0,0.0,100,0.00,,,0.00,,2013-04-02 11:12:00,
2013-04-02 07:22:00,20.0,20.0,30.26,WSW,247,0.0,0.0,100,0.00,,,0.00,,2013-04-02 11:22:00,
2013-04-02 07:33:00,20.0,20.0,30.27,West,270,0.0,0.0,100,0.00,,,0.00,,2013-04-02 11:33:00,
2013-04-02 07:43:00,20.0,20.0,30.27,West,270,0.0,0.0,100,0.00,,,0.00,,2013-04-02 11:43:00,
2013-04-02 07:53:00,21.0,21.0,30.27,West,270,0.0,0.0,98,0.00,,,0.00,,2013-04-02 11:53:00,
2013-04-02 08:02:00,22.0,20.0,30.29,West,270,1.0,2.0,92,0.00,,,0.00,,2013-04-02 12:02:00,
2013-04-02 08:12:00,22.0,20.0,30.29,West,270,1.0,2.0,92,0.00,,,0.00,,2013-04-02 12:12:00,
2013-04-02 08:23:00,23.0,20.0,30.29,NW,315,1.0,6.0,89,0.00,,,0.00,,2013-04-02 12:23:00,
2013-04-02 08:32:00,24.0,20.0,30.29,WNW,292,1.0,0.0,85,0.00,,,0.00,,2013-04-02 12:32:00,
2013-04-02 08:42:00,24.0,20.0,30.29,WNW,292,1.0,0.0,85,0.00,,,0.00,,2013-04-02 12:42:00,
2013-04-02 08:53:00,26.0,22.0,30.27,NW,315,1.0,2.0,83,0.00,,,0.00,,2013-04-02 12:53:00,
2013-04-02 09:02:00,27.0,22.0,30.26,WNW,292,0.0,2.0,80,0.00,,,0.00,,2013-04-02 13:02:00,
2013-04-02 09:12:00,28.0,22.0,30.26,NW,315,2.0,5.0,77,0.00,,,0.00,,2013-04-02 13:12:00,
2013-04-02 09:22:00,28.0,22.0,30.26,NW,315,2.0,5.0,77,0.00,,,0.00,,2013-04-02 13:22:00,
2013-04-02 09:42:00,29.0,21.0,30.27,WNW,292,3.0,6.0,72,0.00,,,0.00,,2013-04-02 13:42:00,
2013-04-02 09:52:00,30.0,21.0,30.25,WNW,292,2.0,6.0,68,0.00,,,0.00,,2013-04-02 13:52:00,
2013-04-02 10:02:00,31.0,20.0,30.26,WNW,292,1.0,5.0,63,0.00,,,0.00,,2013-04-02 14:02:00,
2013-04-02 10:12:00,31.0,20.0,30.26,WNW,292,1.0,5.0,63,0.00,,,0.00,,2013-04-02 14:12:00,
2013-04-02 10:23:00,32.0,20.0,30.25,WNW,292,2.0,10.0,60,0.00,,,0.00,,2013-04-02 14:23:00,
2013-04-02 10:32:00,31.0,20.0,30.26,NW,315,3.0,7.0,62,0.00,,,0.00,,2013-04-02 14:32:00,
2013-04-02 10:42:00,31.0,20.0,30.26,NW,315,3.0,7.0,62,0.00,,,0.00,,2013-04-02 14:42:00,
2013-04-02 10:52:00,32.0,18.0,30.27,WNW,292,5.0,6.0,56,0.00,,,0.00,,2013-04-02 14:52:00,
2013-04-02 11:02:00,33.0,18.0,30.29,West,270,4.0,5.0,54,0.00,,,0.00,,2013-04-02 15:02:00,
2013-04-02 11:11:00,33.0,18.0,30.29,West,270,4.0,5.0,54,0.00,,,0.00,,2013-04-02 15:11:00,
2013-04-02 11:22:00,33.0,16.0,30.27,NW,315,6.0,9.0,50,0.00,,,0.00,,2013-04-02 15:22:00,
2013-04-02 11:33:00,35.0,17.0,30.29,NW,315,3.0,10.0,48,0.00,,,0.00,,2013-04-02 15:33:00,
2013-04-02 11:43:00,35.0,17.0,30.29,NW,315,3.0,10.0,48,0.00,,,0.00,,2013-04-02 15:43:00,
2013-04-02 11:58:00,35.0,17.0,30.27,West,270,5.0,12.0,48,0.00,,,0.00,,2013-04-02 15:58:00,
2013-04-02 12:04:00,35.0,16.0,30.27,West,270,5.0,10.0,46,0.00,,,0.00,,2013-04-02 16:04:00,
2013-04-02 12:13:00,35.0,16.0,30.27,West,270,5.0,10.0,46,0.00,,,0.00,,2013-04-02 16:13:00,
2013-04-02 12:24:00,35.0,16.0,30.27,West,270,5.0,10.0,46,0.00,,,0.00,,2013-04-02 16:24:00,
2013-04-02 12:36:00,36.0,17.0,30.27,West,270,6.0,11.0,45,0.00,,,0.00,,2013-04-02 16:36:00,
2013-04-02 12:44:00,36.0,17.0,30.27,West,270,6.0,11.0,45,0.00,,,0.00,,2013-04-02 16:44:00,
2013-04-02 12:53:00,35.0,16.0,30.26,WNW,292,7.0,11.0,45,0.00,,,0.00,,2013-04-02 16:53:00,
2013-04-02 13:05:00,36.0,16.0,30.27,West,270,5.0,14.0,44,0.00,,,0.00,,2013-04-02 17:05:00,
2013-04-02 13:13:00,36.0,16.0,30.27,West,270,5.0,14.0,44,0.00,,,0.00,,2013-04-02 17:13:00,
2013-04-02 13:25:00,36.0,16.0,30.25,West,270,9.0,15.0,44,0.00,,,0.00,,2013-04-02 17:25:00,
2013-04-02 13:34:00,38.0,16.0,30.25,WNW,292,5.0,6.0,41,0.00,,,0.00,,2013-04-02 17:34:00,
2013-04-02 13:43:00,38.0,16.0,30.25,WNW,292,5.0,6.0,41,0.00,,,0.00,,2013-04-02 17:43:00,
2013-04-02 13:56:00,37.0,15.0,30.25,West,270,6.0,13.0,40,0.00,,,0.00,,2013-04-02 17:56:00,
2013-04-02 14:04:00,38.0,17.0,30.24,WSW,247,8.0,11.0,42,0.00,,,0.00,,2013-04-02 18:04:00,
2013-04-02 14:12:00,38.0,17.0,30.24,WSW,247,8.0,11.0,42,0.00,,,0.00,,2013-04-02 18:12:00,
2013-04-02 14:23:00,40.0,17.0,30.23,NW,315,5.0,9.0,39,0.00,,,0.00,,2013-04-02 18:23:00,
2013-04-02 14:34:00,39.0,15.0,30.22,West,270,6.0,13.0,37,0.00,,,0.00,,2013-04-02 18:34:00,
2013-04-02 14:43:00,39.0,15.0,30.22,West,270,6.0,13.0,37,0.00,,,0.00,,2013-04-02 18:43:00,
2013-04-02 14:57:00,40.0,16.0,30.22,NW,315,5.0,6.0,37,0.00,,,0.00,,2013-04-02 18:57:00,
2013-04-02 15:13:00,39.0,14.0,30.22,West,270,8.0,9.0,36,0.00,,,0.00,,2013-04-02 19:13:00,
2013-04-02 15:23:00,40.0,15.0,30.21,WNW,292,8.0,9.0,36,0.00,,,0.00,,2013-04-02 19:23:00,
2013-04-02 15:34:00,40.0,14.0,30.21,WNW,292,6.0,8.0,34,0.00,,,0.00,,2013-04-02 19:34:00,
2013-04-02 15:45:00,40.0,14.0,30.21,WNW,292,6.0,8.0,34,0.00,,,0.00,,2013-04-02 19:45:00,
2013-04-02 15:57:00,40.0,13.0,30.22,NW,315,6.0,12.0,33,0.00,,,0.00,,2013-04-02 19:57:00,
2013-04-02 16:03:00,40.0,13.0,30.21,West,270,9.0,14.0,33,0.00,,,0.00,,2013-04-02 20:03:00,
2013-04-02 16:33:00,40.0,13.0,30.19,North,360,8.0,21.0,32,0.00,,,0.00,,2013-04-02 20:33:00,
2013-04-02 16:44:00,40.0,13.0,30.19,North,360,8.0,21.0,32,0.00,,,0.00,,2013-04-02 20:44:00,
2013-04-02 16:55:00,40.0,13.0,30.19,North,360,8.0,21.0,32,0.00,,,0.00,,2013-04-02 20:55:00,
2013-04-02 17:04:00,41.0,13.0,30.21,WNW,292,9.0,13.0,31,0.00,,,0.00,,2013-04-02 21:04:00,
2013-04-02 17:13:00,41.0,13.0,30.21,WNW,292,9.0,13.0,31,0.00,,,0.00,,2013-04-02 21:13:00,
2013-04-02 17:23:00,41.0,12.0,30.20,West,270,7.0,10.0,30,0.00,,,0.00,,2013-04-02 21:23:00,
2013-04-02 17:34:00,41.0,13.0,30.22,West,270,5.0,8.0,32,0.00,,,0.00,,2013-04-02 21:34:00,
2013-04-02 17:44:00,41.0,13.0,30.22,West,270,5.0,8.0,32,0.00,,,0.00,,2013-04-02 21:44:00,
2013-04-02 17:56:00,41.0,13.0,30.21,NW,315,5.0,11.0,31,0.00,,,0.00,,2013-04-02 21:56:00,
2013-04-02 18:04:00,41.0,13.0,30.21,NNW,337,7.0,9.0,31,0.00,,,0.00,,2013-04-02 22:04:00,
2013-04-02 18:14:00,41.0,13.0,30.21,NNW,337,7.0,9.0,31,0.00,,,0.00,,2013-04-02 22:14:00,
2013-04-02 18:24:00,40.0,12.0,30.24,WNW,292,7.0,13.0,31,0.00,,,0.00,,2013-04-02 22:24:00,
2013-04-02 18:33:00,39.0,11.0,30.25,West,270,7.0,12.0,31,0.00,,,0.00,,2013-04-02 22:33:00,
2013-04-02 18:43:00,39.0,11.0,30.25,West,270,7.0,12.0,31,0.00,,,0.00,,2013-04-02 22:43:00,
2013-04-02 18:54:00,39.0,12.0,30.26,WNW,292,6.0,15.0,32,0.00,,,0.00,,2013-04-02 22:54:00,
2013-04-02 19:03:00,38.0,9.0,30.25,NNW,337,7.0,14.0,30,0.00,,,0.00,,2013-04-02 23:03:00,
2013-04-02 19:13:00,37.0,8.0,30.27,WNW,292,8.0,21.0,30,0.00,,,0.00,,2013-04-02 23:13:00,
2013-04-02 19:23:00,37.0,8.0,30.27,WNW,292,8.0,21.0,30,0.00,,,0.00,,2013-04-02 23:23:00,
2013-04-02 19:35:00,37.0,10.0,30.26,WNW,292,4.0,12.0,32,0.00,,,0.00,,2013-04-02 23:35:00,
2013-04-02 19:43:00,37.0,10.0,30.26,WNW,292,4.0,12.0,32,0.00,,,0.00,,2013-04-02 23:43:00,
2013-04-02 19:54:00,36.0,10.0,30.28,NW,315,5.0,14.0,33,0.00,,,0.00,,2013-04-02 23:54:00,
2013-04-02 20:04:00,35.0,9.0,30.28,SSE,157,4.0,7.0,34,0.00,,,0.00,,2013-04-03 00:04:00,
2013-04-02 20:13:00,35.0,9.0,30.28,SSE,157,4.0,7.0,34,0.00,,,0.00,,2013-04-03 00:13:00,
2013-04-02 20:24:00,34.0,10.0,30.29,NNW,337,2.0,5.0,36,0.00,,,0.00,,2013-04-03 00:24:00,
2013-04-02 20:33:00,33.0,10.0,30.29,NW,315,1.0,6.0,37,0.00,,,0.00,,2013-04-03 00:33:00,
2013-04-02 20:47:00,33.0,10.0,30.29,NW,315,1.0,6.0,37,0.00,,,0.00,,2013-04-03 00:47:00,
2013-04-02 20:57:00,32.0,11.0,30.29,NW,315,0.0,1.0,41,0.00,,,0.00,,2013-04-03 00:57:00,
2013-04-02 21:04:00,31.0,11.0,30.29,WNW,292,0.0,0.0,43,0.00,,,0.00,,2013-04-03 01:04:00,
2013-04-02 21:12:00,31.0,11.0,30.29,WNW,292,0.0,0.0,43,0.00,,,0.00,,2013-04-03 01:12:00,
2013-04-02 21:23:00,30.0,11.0,30.31,NW,315,0.0,2.0,44,0.00,,,0.00,,2013-04-03 01:23:00,
2013-04-02 21:33:00,30.0,11.0,30.31,NW,315,0.0,0.0,45,0.00,,,0.00,,2013-04-03 01:33:00,
2013-04-02 21:42:00,30.0,11.0,30.31,NW,315,0.0,0.0,45,0.00,,,0.00,,2013-04-03 01:42:00,
2013-04-02 21:53:00,29.0,11.0,30.32,NW,315,0.0,0.0,46,0.00,,,0.00,,2013-04-03 01:53:00,
2013-04-02 22:03:00,29.0,12.0,30.33,NW,315,0.0,0.0,48,0.00,,,0.00,,2013-04-03 02:03:00,
2013-04-02 22:13:00,29.0,12.0,30.33,NW,315,0.0,0.0,48,0.00,,,0.00,,2013-04-03 02:13:00,
2013-04-02 22:24:00,29.0,12.0,30.33,NW,315,0.0,0.0,48,0.00,,,0.00,,2013-04-03 02:24:00,
2013-04-02 22:34:00,29.0,12.0,30.33,NW,315,0.0,0.0,48,0.00,,,0.00,,2013-04-03 02:34:00,
2013-04-02 22:43:00,29.0,12.0,30.33,NW,315,0.0,0.0,48,0.00,,,0.00,,2013-04-03 02:43:00,
2013-04-02 23:23:00,27.0,14.0,30.35,NNW,337,0.0,0.0,57,0.00,,,0.00,,2013-04-03 03:23:00,
2013-04-02 23:38:00,26.0,14.0,30.36,NNW,337,0.0,0.0,59,0.00,,,0.00,,2013-04-03 03:38:00,
2013-04-02 23:44:00,26.0,14.0,30.36,NNW,337,0.0,0.0,59,0.00,,,0.00,,2013-04-03 03:44:00,
2013-04-02 23:54:00,26.0,14.0,30.35,NNW,337,0.0,0.0,61,0.00,,,0.00,,2013-04-03 03:54:00,